DMSP 5D-2 F13 DEB, 42300

Orbit data source: Space-Track

DMSP 5D-2 F13 DEB, 42300 is space debris in SSO originally from a launch on Fri, 24 Mar 1995 UTC launched from the Air Force Western Test Range (AFWTR). Debris objects in space refer to the collection of defunct objects orbiting the Earth. Examples of debris include non-operational satellites, rocket bodies, and fragments generated from explosions, collisions, or faulty payload assembly.

Loading next visibility...
Identifier
42300, 1995-015HS
Orbit
SSO
Country
Flag of USUS
Related business
Manufacturer
Unknown
Mission
Spacecraft
Bus & Motor
Unknown
Mass
Unknown
Launch date (UTC)
1995-03-24 (31 years ago)
Launch vehicle
Unknown
Launch site
Air Force Western Test Range (AFWTR)
Object type
Payload
Rocket body
Debris
Shape & HBR
Unknown shape, 0.1 m
Radar Cross Section
Small (<0.1 m²)

Expand to show TLE details & history
Last TLE update: 19 hours ago

TLE from 19 hours ago
0 DMSP 5D-2 F13 DEB
1 42300U 95015HS  26037.08472789  .00008833  00000-0  25529-2 0  9999
2 42300  98.6012  80.5160 0023193 320.3089  39.6404 14.44629837482198
Epoch: 2026-02-06T02:02Z
TLE epoch observation values (Epoch: 2026-02-06T02:02:00.489Z)
Latitude
0.00003°
Longitude
-86.21372°
Altitude
733.488 km
Speed
7.495 km/s
True Right ascension
05h 22m 03s
True Declination
0° 00' 00"
Sunlit
Object was in full shadow at epoch
Visualization orbit readout
Latitude
Unknown
Longitude
Unknown
Altitude
Unknown
Speed
Unknown
Apparent Right ascension
Unknown
Apparent Declination
Unknown
Sunlit
N/A
Visualization observer readout
Local Sidereal Time
23:23:13
Azimuth
Unknown
Elevation
Unknown
Doppler factor
Unknown
Orbital elements
Apogee altitude
756.873 km
Perigee altitude
723.853 km
Semi-major axis
7,118.5 km
Eccentricity
0.00232
Inclination
98.6012°
RAAN
80.516°
Arg. of periapsis
320.3089°
True anomaly
39.81033°
Mean anomaly
39.6404°
Eccentric anomaly
39.72533°
Mean motion
3.61377 °/min
Orbital period
99.62 mins
BSTAR
0.0025529
Loading maneuver chart data...
Computing Atmospheric mass density...

Documentation

Showing up to 5 results
|